TimeCST,TemperatureF,Dew PointF,Humidity,Sea Level PressureIn,VisibilityMPH,Wind Direction,Wind SpeedMPH,Gust SpeedMPH,PrecipitationIn,Events,Conditions,WindDirDegrees,DateUTC
12:15 AM,32.0,26.6,80,30.35,10.0,Calm,Calm,-,N/A,,Clear,0,2012-12-13 06:15:00
12:35 AM,30.2,26.6,86,30.35,10.0,Calm,Calm,-,N/A,,Clear,0,2012-12-13 06:35:00
12:55 AM,30.2,26.6,86,30.35,10.0,Calm,Calm,-,N/A,,Clear,0,2012-12-13 06:55:00
1:15 AM,28.4,24.8,86,30.33,10.0,SSE,5.8,-,N/A,,Clear,150,2012-12-13 07:15:00
1:35 AM,32.0,26.6,80,30.34,10.0,Calm,Calm,-,N/A,,Clear,0,2012-12-13 07:35:00
1:55 AM,32.0,26.6,80,30.36,10.0,Calm,Calm,-,N/A,,Clear,0,2012-12-13 07:55:00
2:15 AM,28.4,26.6,93,30.37,10.0,Calm,Calm,-,N/A,,Clear,0,2012-12-13 08:15:00
2:35 AM,28.4,26.6,93,30.37,10.0,Calm,Calm,-,N/A,,Clear,0,2012-12-13 08:35:00
2:55 AM,28.4,26.6,93,30.38,10.0,Calm,Calm,-,N/A,,Clear,0,2012-12-13 08:55:00
3:15 AM,28.4,26.6,93,30.37,10.0,Calm,Calm,-,N/A,,Clear,0,2012-12-13 09:15:00
3:35 AM,28.4,26.6,93,30.38,10.0,Calm,Calm,-,N/A,,Clear,0,2012-12-13 09:35:00
3:55 AM,26.6,24.8,93,30.38,10.0,Calm,Calm,-,N/A,,Clear,0,2012-12-13 09:55:00
4:15 AM,28.4,24.8,86,30.38,10.0,Calm,Calm,-,N/A,,Clear,0,2012-12-13 10:15:00
4:35 AM,28.4,26.6,93,30.37,10.0,ESE,3.5,-,N/A,,Clear,120,2012-12-13 10:35:00
4:55 AM,28.4,26.6,93,30.37,10.0,Calm,Calm,-,N/A,,Clear,0,2012-12-13 10:55:00
5:15 AM,30.2,26.6,86,30.37,10.0,Calm,Calm,-,N/A,,Clear,0,2012-12-13 11:15:00
5:35 AM,32.0,26.6,80,30.37,10.0,SE,4.6,-,N/A,,Clear,140,2012-12-13 11:35:00
6:53 AM,30.2,24.8,80,30.38,20.0,SE,8.1,-,N/A,,Partly Cloudy,130,2012-12-13 12:53:00
7:53 AM,32.0,26.6,80,30.39,20.0,SE,8.1,-,N/A,,Partly Cloudy,140,2012-12-13 13:53:00
8:56 AM,37.4,28.4,70,30.39,20.0,SE,6.9,-,N/A,,Partly Cloudy,140,2012-12-13 14:56:00
9:53 AM,42.8,28.4,57,30.40,20.0,South,9.2,-,N/A,,Partly Cloudy,180,2012-12-13 15:53:00
10:53 AM,46.4,26.6,46,30.38,20.0,South,9.2,-,N/A,,Partly Cloudy,190,2012-12-13 16:53:00
11:54 AM,50.0,26.6,40,30.35,20.0,South,11.5,-,N/A,,Scattered Clouds,180,2012-12-13 17:54:00
12:50 PM,51.8,24.8,35,30.32,20.0,South,11.5,-,N/A,,Scattered Clouds,180,2012-12-13 18:50:00
1:58 PM,53.6,24.8,33,30.29,20.0,South,9.2,-,N/A,,Clear,180,2012-12-13 19:58:00
3:55 PM,50.0,24.8,37,30.27,20.0,South,9.2,-,N/A,,Clear,190,2012-12-13 21:55:00
6:55 PM,39.2,24.8,56,30.28,10.0,South,5.8,-,N/A,,Clear,180,2012-12-14 00:55:00
7:15 PM,39.2,26.6,61,30.27,10.0,South,6.9,-,N/A,,Clear,180,2012-12-14 01:15:00
7:35 PM,37.4,26.6,65,30.27,10.0,South,6.9,-,N/A,,Clear,170,2012-12-14 01:35:00
7:55 PM,39.2,26.6,61,30.27,10.0,South,4.6,-,N/A,,Clear,180,2012-12-14 01:55:00
8:15 PM,37.4,26.6,65,30.27,10.0,South,6.9,-,N/A,,Clear,180,2012-12-14 02:15:00
8:35 PM,35.6,28.4,75,30.27,10.0,South,6.9,-,N/A,,Clear,170,2012-12-14 02:35:00
8:55 PM,35.6,28.4,75,30.26,10.0,South,6.9,-,N/A,,Clear,170,2012-12-14 02:55:00
9:15 PM,35.6,28.4,75,30.26,10.0,South,6.9,-,N/A,,Clear,170,2012-12-14 03:15:00
9:35 PM,37.4,28.4,70,30.26,10.0,South,5.8,-,N/A,,Clear,180,2012-12-14 03:35:00
9:55 PM,35.6,28.4,75,30.26,10.0,South,6.9,-,N/A,,Clear,170,2012-12-14 03:55:00
10:15 PM,33.8,28.4,81,30.26,10.0,South,9.2,-,N/A,,Clear,180,2012-12-14 04:15:00
10:35 PM,33.8,28.4,81,30.26,10.0,South,8.1,-,N/A,,Clear,180,2012-12-14 04:35:00
10:55 PM,33.8,28.4,81,30.25,10.0,South,9.2,-,N/A,,Clear,180,2012-12-14 04:55:00
11:15 PM,33.8,28.4,81,30.25,10.0,South,8.1,-,N/A,,Clear,180,2012-12-14 05:15:00
11:35 PM,33.8,28.4,81,30.24,10.0,South,5.8,-,N/A,,Clear,180,2012-12-14 05:35:00
11:55 PM,35.6,28.4,75,30.24,10.0,South,6.9,-,N/A,,Clear,180,2012-12-14 05:55:00